Weather History for Minneapolis Flying Cloud, MN

Change the Weather History Date:

Thursday, August 22, 2013

  Actual Average Record
Temperature  
Mean Temperature 78 °F -  
Max Temperature 88 °F 78 °F 89 °F (2010)
Min Temperature 68 °F 59 °F 53 °F (2005)
Cooling Degree Days 13    
Growing Degree Days 28 (Base 50)    
Moisture  
Dew Point 53 °F    
Average Humidity 45    
Maximum Humidity 60    
Minimum Humidity 29    
Precipitation  
Precipitation 0.00 in - - ()
Sea Level Pressure  
Sea Level Pressure 30.07 in    
Wind  
Wind Speed 8 mph (NNE)    
Max Wind Speed 16 mph    
Max Gust Speed 24 mph    
Visibility 10 miles    
Events      
Averages and records for this station are not official NWS values.
T = Trace of Precipitation, MM = Missing Value Source: NWS Daily Summary

Daily Weather History Graph

Daily Weather History Graph

Search for Another Location

Airport:

Trip Planner

Search our weather history database for the weather conditions in past years. The results will help you decide how hot, cold, wet, or windy it might be!

Date:

Astronomy

Aug. 22, 2013 Rise Set
Actual Time 6:24 AM CDT 8:07 PM CDT
Civil Twilight 5:53 AM CDT 8:38 PM CDT
Nautical Twilight 5:15 AM CDT 9:16 PM CDT
Astronomical Twilight 4:34 AM CDT 9:57 PM CDT
Moon 8:43 PM CDT (8/22) 8:21 AM CDT (8/22)
Length of Visible Light 14h 45m
Length of Day
13h 43m
Waning Gibbous, 96% of the Moon is Illuminated
Aug 22
Waning Gibbous
Aug 28
Last Quarter
Sep 5
New
Sep 12
First Quarter
Sep 19
Full

Hourly Weather History & Observations

Time (CDT) Temp. Heat Index Dew Point Humidity Pressure Visibility Wind Dir Wind Speed Gust Speed Precip Events Conditions
12:53 AM 75.0 °F - 60.1 °F 60% 30.01 in 10.0 mi North 5.8 mph - N/A   Clear
1:53 AM 75.0 °F - 57.9 °F 55% 30.01 in 10.0 mi NNE 6.9 mph - N/A   Clear
2:53 AM 75.0 °F - 55.9 °F 51% 30.00 in 10.0 mi NNE 10.4 mph - N/A   Mostly Cloudy
3:53 AM 73.0 °F - 55.9 °F 55% 30.03 in 10.0 mi NNE 10.4 mph - N/A   Mostly Cloudy
4:53 AM 72.0 °F - 51.1 °F 48% 30.04 in 10.0 mi NNE 10.4 mph - N/A   Scattered Clouds
5:53 AM 71.1 °F - 48.9 °F 45% 30.03 in 10.0 mi NNE 15.0 mph - N/A   Clear
6:53 AM 69.1 °F - 51.1 °F 53% 30.06 in 10.0 mi NNE 16.1 mph 24.2 mph N/A   Clear
7:53 AM 69.1 °F - 51.1 °F 53% 30.11 in 10.0 mi NE 6.9 mph - N/A   Clear
8:53 AM 71.1 °F - 50.0 °F 47% 30.10 in 10.0 mi NE 10.4 mph - N/A   Partly Cloudy
9:53 AM 75.0 °F - 51.1 °F 43% 30.09 in 10.0 mi East 11.5 mph - N/A   Clear
10:53 AM 78.1 °F - 52.0 °F 40% 30.09 in 10.0 mi NNE 9.2 mph - N/A   Clear
11:53 AM 80.1 °F - 52.0 °F 38% 30.09 in 10.0 mi NNE 11.5 mph - N/A   Clear
12:53 PM 82.0 °F 81.2 °F 53.1 °F 37% 30.09 in 10.0 mi NNE 6.9 mph - N/A   Clear
1:53 PM 82.9 °F - 52.0 °F 34% 30.09 in 10.0 mi NE 9.2 mph - N/A   Clear
2:53 PM 84.9 °F - 50.0 °F 30% 30.08 in 10.0 mi NNE 8.1 mph - N/A   Clear
3:53 PM 86.0 °F - 50.0 °F 29% 30.07 in 10.0 mi NNE 8.1 mph - N/A   Clear
4:53 PM 87.1 °F - 51.1 °F 29% 30.06 in 10.0 mi Variable 4.6 mph - N/A   Clear
5:53 PM 86.0 °F - 52.0 °F 31% 30.06 in 8.0 mi NNW 8.1 mph - N/A   Clear
6:53 PM 82.0 °F 81.3 °F 54.0 °F 38% 30.06 in 9.0 mi NNW 5.8 mph - N/A   Clear
7:53 PM 77.0 °F - 53.1 °F 43% 30.07 in 10.0 mi North 4.6 mph - N/A   Clear
8:53 PM 73.0 °F - 54.0 °F 51% 30.09 in 10.0 mi North 4.6 mph - N/A   Clear
9:53 PM 71.1 °F - 53.1 °F 53% 30.10 in 10.0 mi ESE 3.5 mph - N/A   Clear
10:53 PM 71.1 °F - 53.1 °F 53% 30.10 in 10.0 mi NE 4.6 mph - N/A   Clear
11:53 PM 68.0 °F - 53.1 °F 59% 30.10 in 10.0 mi NE 4.6 mph - N/A   Clear